This is the latest recevied weather packets stored in our database for station/object LZ1ASO-10. If no packets are shown the sender has not sent any weather packets the latest 10 day(s).
| Time | Temp. | Humidity | Pressure | Rain* | Wind** | Luminosity | Snow |
|---|---|---|---|---|---|---|---|
| 1778054279 | 19.44° C | 39% | 1018.4 hPa | - | - | - | - |
| 1778053379 | 19.44° C | 39% | 1018.4 hPa | - | - | - | - |
| 1778052479 | 18.89° C | 39% | 1018.3 hPa | - | - | - | - |
| 1778051579 | 18.89° C | 40% | 1018.1 hPa | - | - | - | - |
| 1778050679 | 18.33° C | 40% | 1018 hPa | - | - | - | - |
| 1778049779 | 18.33° C | 40% | 1018 hPa | - | - | - | - |
| 1778048878 | 17.78° C | 40% | 1017.9 hPa | - | - | - | - |
| 1778047979 | 17.78° C | 41% | 1017.9 hPa | - | - | - | - |
| 1778047078 | 17.22° C | 41% | 1017.8 hPa | - | - | - | - |
| 1778046178 | 16.67° C | 42% | 1017.7 hPa | - | - | - | - |
| 1778045278 | 16.67° C | 42% | 1017.7 hPa | - | - | - | - |
| 1778044378 | 16.11° C | 43% | 1017.6 hPa | - | - | - | - |
| 1778043478 | 16.11° C | 44% | 1017.4 hPa | - | - | - | - |
| 1778042577 | 16.11° C | 43% | 1017.2 hPa | - | - | - | - |
| 1778041679 | 15.56° C | 42% | 1017.2 hPa | - | - | - | - |
| 1778040777 | 15.56° C | 43% | 1016.9 hPa | - | - | - | - |
| 1778039877 | 15.56° C | 42% | 1016.8 hPa | - | - | - | - |
| 1778038977 | 15° C | 42% | 1016.7 hPa | - | - | - | - |
| 1778038077 | 15° C | 42% | 1016.5 hPa | - | - | - | - |
| 1778037177 | 15.56° C | 42% | 1016.4 hPa | - | - | - | - |
| 1778036277 | 15.56° C | 42% | 1016.3 hPa | - | - | - | - |
| 1778035376 | 15.56° C | 42% | 1016.1 hPa | - | - | - | - |
| 1778034476 | 15.56° C | 42% | 1016.1 hPa | - | - | - | - |
| 1778033576 | 15.56° C | 42% | 1016.1 hPa | - | - | - | - |
| 1778032676 | 15.56° C | 42% | 1016 hPa | - | - | - | - |
* Rain since midnight (hover to see other rain measurements)
** Current wind speed in m/s (hover to see current wind gust speed)